Weather History for Topeka, KS

Change the Weather History Date:

Tuesday, December 25, 2012

  Actual Average Record
Temperature  
Mean Temperature 18 °F 30 °F  
Max Temperature 22 °F 40 °F 68 °F (1922)
Min Temperature 13 °F 21 °F -11 °F (1983)
Degree Days  
Heating Degree Days 47 35  
Month to date heating degree days 656 813  
Since 1 July heating degree days 1543 1807  
Cooling Degree Days 0 0  
Month to date cooling degree days 0 0  
Year to date cooling degree days 1978 1422  
Moisture  
Dew Point 9 °F    
Average Humidity 64    
Maximum Humidity 76    
Minimum Humidity 52    
Precipitation  
Precipitation 0.00 in 0.03 in 0.46 in (1941)
Month to date precipitation 0.61 1.16  
Year to date precipitation 22.88 36.27  
Snow  
Snow 0.00 in 0.10 in 4.10 in (2009)
Month to date snowfall 2.8 4.0  
Year to date snowfall 5.8 16.6  
Since 1 July snowfall 2.8 5.3  
Snow Depth 0.00 in    
Sea Level Pressure  
Sea Level Pressure 30.30 in    
Wind  
Wind Speed 14 mph (North)    
Max Wind Speed 24 mph    
Max Gust Speed 31 mph    
Visibility 10 miles    
Events      
T = Trace of Precipitation, MM = Missing Value Source: NWS Daily Summary

Daily Weather History Graph

Daily Weather History Graph

Search for Another Location

Airport:

Trip Planner

Search our weather history database for the weather conditions in past years. The results will help you decide how hot, cold, wet, or windy it might be!

Date:

Astronomy

Dec. 25, 2012 Rise Set
Actual Time 7:40 AM CST 5:05 PM CST
Civil Twilight 7:09 AM CST 5:35 PM CST
Nautical Twilight 6:36 AM CST 6:09 PM CST
Astronomical Twilight 6:03 AM CST 6:42 PM CST
Moon 3:14 PM CST (12/25) 5:13 AM CST (12/25)
Length of Visible Light 10h 26m
Length of Day
9h 25m
Waxing Gibbous, 94% of the Moon is Illuminated
Dec 25
Waxing Gibbous
Dec 28
Full
Jan 4
Last Quarter
Jan 11
New
Jan 18
First Quarter

Hourly Weather History & Observations

Time (CST) Temp. Windchill Dew Point Humidity Pressure Visibility Wind Dir Wind Speed Gust Speed Precip Events Conditions
12:53 AM 21.0 °F 8.6 °F 12.9 °F 71% 30.19 in 10.0 mi NNE 12.7 mph - N/A   Clear
1:53 AM 19.9 °F 8.6 °F 12.9 °F 74% 30.21 in 10.0 mi NNE 10.4 mph - N/A   Clear
2:53 AM 19.9 °F 7.9 °F 12.9 °F 74% 30.23 in 10.0 mi NNE 11.5 mph - N/A   Scattered Clouds
3:01 AM 19.9 °F 7.9 °F 12.9 °F 74% 30.19 in 10.0 mi NE 11.5 mph - N/A   Mostly Cloudy
3:53 AM 19.9 °F 7.9 °F 12.9 °F 74% 30.24 in 10.0 mi NNE 11.5 mph - N/A   Overcast
4:53 AM 19.0 °F 6.1 °F 12.0 °F 74% 30.25 in 10.0 mi NNE 12.7 mph - N/A   Overcast
5:53 AM 19.0 °F 4.0 °F 10.9 °F 71% 30.27 in 10.0 mi North 17.3 mph - N/A   Overcast
6:53 AM 18.0 °F 3.6 °F 10.9 °F 74% 30.29 in 10.0 mi North 15.0 mph - N/A   Overcast
7:53 AM 17.1 °F 3.0 °F 10.0 °F 74% 30.34 in 10.0 mi North 13.8 mph - N/A   Overcast
8:53 AM 16.0 °F 0.1 °F 9.0 °F 74% 30.35 in 10.0 mi North 17.3 mph 23.0 mph N/A   Overcast
9:53 AM 17.1 °F 2.5 °F 8.1 °F 68% 30.35 in 10.0 mi North 15.0 mph 27.6 mph N/A   Overcast
10:18 AM 17.1 °F 0.6 °F 8.1 °F 68% 30.27 in 10.0 mi North 19.6 mph 26.5 mph N/A   Overcast
10:26 AM 18.0 °F 5.4 °F 8.1 °F 65% 30.29 in 10.0 mi NNE 11.5 mph 26.5 mph N/A   Overcast
10:53 AM 18.0 °F 3.6 °F 8.1 °F 65% 30.33 in 10.0 mi North 15.0 mph 23.0 mph N/A   Overcast
11:53 AM 18.0 °F 2.6 °F 8.1 °F 65% 30.31 in 10.0 mi North 17.3 mph 24.2 mph N/A   Mostly Cloudy
12:09 PM 19.9 °F 3.5 °F 9.0 °F 62% 30.26 in 10.0 mi North 21.9 mph 26.5 mph N/A   Partly Cloudy
12:53 PM 21.0 °F 7.6 °F 9.0 °F 60% 30.33 in 10.0 mi NNE 15.0 mph 21.9 mph N/A   Mostly Cloudy
1:53 PM 21.0 °F 6.6 °F 8.1 °F 57% 30.30 in 10.0 mi North 17.3 mph 24.2 mph N/A   Overcast
2:53 PM 21.0 °F 6.2 °F 7.0 °F 55% 30.31 in 10.0 mi North 18.4 mph 25.3 mph N/A   Mostly Cloudy
3:53 PM 19.9 °F 5.7 °F 6.1 °F 55% 30.35 in 10.0 mi North 16.1 mph - N/A   Mostly Cloudy
4:53 PM 19.9 °F 5.7 °F 7.0 °F 57% 30.36 in 10.0 mi North 16.1 mph - N/A   Overcast
5:53 PM 19.0 °F 5.0 °F 7.0 °F 59% 30.35 in 10.0 mi North 15.0 mph 25.3 mph N/A   Overcast
6:53 PM 19.0 °F 6.8 °F 7.0 °F 59% 30.36 in 10.0 mi North 11.5 mph - N/A   Mostly Cloudy
7:53 PM 17.1 °F 1.5 °F 7.0 °F 65% 30.35 in 10.0 mi North 17.3 mph 24.2 mph N/A   Mostly Cloudy
8:53 PM 15.1 °F 1.1 °F 7.0 °F 70% 30.34 in 10.0 mi North 12.7 mph - N/A   Clear
9:53 PM 14.0 °F 2.0 °F 6.1 °F 71% 30.34 in 10.0 mi NNW 9.2 mph - N/A   Clear
10:53 PM 12.9 °F -0.9 °F 6.1 °F 74% 30.34 in 10.0 mi North 11.5 mph - N/A   Clear
11:53 PM 12.9 °F 1.6 °F 6.1 °F 74% 30.34 in 10.0 mi North 8.1 mph - N/A   Clear